GFSNIL_850_temp_060.txt.gz
Temp
9 9 9 9 10 10 10 11 11 12 12 11 11 11 11 11 10 10 10 10 10 9
8 8 8 8 9 9 9 10 10 10 11 11 11 11 11 11 10 10 9 9 9 8
8 8 8 8 8 8 8 8 9 9 10 10 10 10 10 10 9 9 8 8 6 7
7 7 8 8 8 8 8 8 8 8 8 9 9 9 9 8 8 8 8 6 5 6
7 7 7 7 7 7 7 7 6 6 6 7 7 7 7 7 7 6 5 5 5 5
6 6 6 6 6 6 5 5 5 4 4 4 4 3 3 3 3 4 4 5 5 5
5 6 5 5 5 5 5 5 5 5 4 4 3 3 3 3 3 3 3 3 4 4
5 5 4 3 3 4 5 5 5 4 4 4 3 3 3 3 2 2 3 3 3 3
4 4 3 1 2 3 4 3 3 3 3 3 3 3 3 2 2 1 1 2 2 1
3 2 2 2 2 2 2 2 2 2 2 3 2 2 2 1 1 1 1 1 0 -0
0 1 1 1 1 1 1 1 2 2 2 2 2 1 1 1 1 1 0 -0 -0 -1
-0 -1 0 1 1 1 1 1 1 2 1 1 1 1 0 0 -0 -1 -1 -1 -2 -2
1 1 1 0 1 1 1 1 1 1 1 0 -0 -1 -1 -1 -1 -2 -2 -3 -3 -4
2 1 1 1 1 1 1 1 1 0 0 -0 -0 -1 -1 -2 -2 -3 -3 -4 -4 -5

GFSNIL_850_temp_063.txt.gz
Temp
10 10 9 9 9 9 9 10 10 10 10 10 10 10 10 10 10 10 10 10 9 9
8 8 8 8 8 8 8 8 9 9 9 10 10 10 10 10 9 9 9 9 9 8
7 8 8 8 8 8 8 8 8 8 9 9 9 9 9 9 9 9 8 8 8 8
7 7 7 7 7 7 7 7 7 7 7 7 8 8 8 8 8 8 8 8 7 6
7 7 7 7 7 7 7 6 6 6 6 6 6 6 6 6 6 6 5 5 4 5
6 6 6 6 6 6 5 5 5 5 4 4 4 4 4 4 4 3 3 3 3 4
5 5 5 5 5 5 5 5 5 4 4 4 4 3 3 4 3 2 2 2 2 3
4 4 4 4 3 4 4 4 4 4 4 4 3 3 3 3 1 1 2 2 2 2
4 3 3 2 1 2 3 3 3 3 3 3 3 3 2 2 2 2 2 1 1 0
3 2 2 2 2 2 3 3 3 3 2 2 2 2 2 2 2 2 2 1 1 0
1 1 1 2 2 2 2 2 2 2 2 2 2 2 2 2 1 1 0 0 -0 -0
-1 0 1 1 1 1 1 2 2 2 2 2 2 1 1 1 1 0 -0 -1 -1 -2
-1 -1 1 1 1 1 2 1 1 1 1 1 1 1 0 0 0 -0 -1 -1 -2 -3
-1 0 0 1 1 1 1 1 1 1 1 1 1 1 0 -0 -0 -1 -2 -2 -3 -4

GFSNIL_850_temp_069.txt.gz
Temp
11 10 10 10 10 10 10 10 10 9 9 9 9 10 10 10 10 10 10 10 10 9
9 9 9 9 9 9 8 8 8 8 9 9 9 9 9 9 9 9 8 8 8 8
8 8 8 8 8 8 8 8 8 8 8 8 8 8 8 8 8 8 7 7 7 6
8 7 7 7 7 7 7 7 8 7 7 7 7 7 7 7 7 7 6 6 6 6
6 6 6 6 7 7 7 7 7 6 6 6 6 5 5 5 5 5 5 5 5 4
6 5 5 6 6 6 6 5 5 5 5 5 5 4 4 3 3 3 2 2 2 2
5 5 5 5 5 5 5 4 4 5 5 4 4 3 3 2 2 1 2 2 2 2
4 4 4 4 4 4 4 3 4 4 4 3 3 3 3 2 1 2 1 1 1 2
3 3 3 3 2 1 1 2 3 3 3 2 2 2 2 2 2 2 2 2 2 2
2 1 1 1 0 1 1 1 2 2 2 2 2 2 2 3 2 2 2 2 2 1
0 0 -0 -0 -0 -0 1 1 1 2 2 2 2 2 2 2 2 2 1 1 0 0
-0 -1 -1 -1 -1 -0 1 1 1 1 1 1 1 1 2 2 2 1 1 0 0 -0
-1 -1 -1 -1 -0 0 0 1 0 1 1 1 1 2 2 1 1 1 0 0 -0 -1
-1 -1 -1 -0 0 0 1 0 0 1 1 1 1 1 1 0 1 1 0 0 -1 -2

GFSNIL_850_temp_072.txt.gz
Temp
12 12 11 11 11 11 10 10 10 10 10 10 10 10 10 9 9 10 8 9 9 9
11 11 10 10 10 10 10 9 9 9 9 9 9 9 9 8 8 9 7 7 8 8
10 9 9 9 9 9 8 8 8 8 8 8 8 8 8 8 8 7 7 6 6 7
8 8 8 7 7 7 7 7 7 7 7 7 7 7 7 7 6 6 6 6 6 6
8 7 7 6 6 6 6 6 6 6 6 6 6 6 6 6 5 5 5 5 5 5
7 6 6 6 5 5 6 6 6 5 5 5 5 5 5 4 4 4 4 4 3 3
6 5 5 5 5 5 5 5 5 5 5 5 4 4 4 3 2 2 2 2 2 2
5 4 4 4 4 4 4 4 4 4 4 4 3 3 2 1 1 2 2 2 2 2
5 4 3 3 4 3 2 1 2 3 3 3 3 3 2 2 2 2 2 2 2 2
4 3 2 2 1 1 1 0 1 2 2 2 2 2 2 2 2 2 2 2 2 2
3 2 1 0 0 0 0 0 1 1 2 2 2 2 2 2 2 2 2 2 2 2
2 1 0 0 -0 -0 -0 0 1 1 2 2 2 2 2 1 2 2 2 1 1 1
1 0 -0 -0 -0 -1 -1 -0 1 1 1 1 2 2 1 1 1 1 1 1 1 1
0 -0 -1 -1 -1 -1 -1 -0 0 0 1 1 1 1 1 1 0 0 1 1 1 0

GFSNIL_850_temp_075.txt.gz
Temp
14 13 13 13 12 11 11 11 11 10 10 10 10 10 10 9 9 9 9 9 8 9
13 12 12 11 11 11 10 10 9 9 9 9 9 9 9 9 8 8 8 7 7 8
12 11 11 10 10 10 9 9 9 8 8 8 8 8 8 8 8 7 7 7 6 6
11 10 10 9 9 9 8 8 8 8 8 8 7 7 7 7 6 6 6 6 6 5
10 9 9 8 8 7 7 7 7 7 7 7 7 6 6 6 5 5 5 5 5 5
9 9 8 8 7 7 6 6 6 6 6 6 5 5 5 4 4 4 4 4 4 4
8 7 7 7 6 6 5 5 5 5 5 5 4 4 4 3 3 3 3 2 2 3
7 7 6 6 5 5 5 5 4 4 4 4 4 3 3 1 1 2 2 2 2 2
7 6 5 5 4 4 4 3 3 3 3 3 3 3 3 2 2 2 2 2 2 2
6 6 5 4 3 3 2 0 1 1 2 2 2 1 1 1 2 2 2 2 2 2
5 4 3 3 1 1 0 0 -0 1 1 1 1 2 2 1 2 2 2 2 2 2
4 3 3 2 0 0 0 0 0 0 0 1 2 2 2 2 1 2 2 2 2 1
4 3 2 0 0 -0 -0 -0 -0 0 1 1 2 2 2 2 2 1 1 1 1 1
3 2 1 0 -0 -1 -1 -1 -1 0 1 1 1 2 2 2 1 1 1 1 1 1

GFSNIL_850_temp_078.txt.gz
Temp
14 14 14 13 13 13 12 12 11 11 11 11 10 10 10 9 9 9 9 9 8 8
14 14 13 13 12 12 11 11 10 10 10 9 9 9 9 9 9 8 8 8 7 7
12 13 13 12 11 11 11 10 10 9 9 9 9 8 8 8 8 7 7 7 6 6
13 12 11 11 11 10 10 9 9 9 8 8 8 8 7 7 7 6 6 7 6 4
11 11 11 11 10 9 9 9 8 8 7 7 7 7 6 6 6 5 5 5 5 5
10 10 10 9 9 8 8 7 7 6 6 6 6 6 5 5 5 5 4 4 4 4
9 9 9 9 8 8 7 6 6 5 5 6 5 5 5 4 3 3 3 3 3 3
9 9 8 8 7 7 6 6 5 5 5 4 4 4 3 2 1 2 2 2 2 1
9 8 7 7 7 6 5 5 4 3 3 3 3 2 2 1 1 1 1 1 2 2
8 8 7 7 6 5 4 4 2 1 1 2 2 1 0 0 1 1 1 1 2 2
8 7 7 6 5 4 3 0 0 0 0 2 1 0 0 1 1 1 1 2 2 2
7 7 6 5 4 2 0 0 0 -0 0 1 1 1 2 2 1 1 1 1 1 1
6 6 5 4 2 1 0 0 -0 -0 -0 0 1 1 1 1 1 1 2 1 1 1
6 5 4 3 1 0 0 -0 -0 -1 -0 0 0 0 1 1 1 1 1 1 1 1

GFSNIL_850_temp_081.txt.gz
Temp
15 14 14 14 15 15 14 14 14 13 12 12 11 11 11 10 10 10 9 9 9 8
14 14 13 13 13 13 13 12 12 12 11 11 10 10 10 10 9 9 8 8 9 8
14 13 13 13 12 13 12 11 11 11 10 10 9 9 9 9 8 8 8 7 8 7
12 13 12 11 13 12 12 11 10 10 9 9 8 8 8 8 7 7 7 7 7 6
11 11 11 13 13 10 11 10 8 8 8 8 7 7 7 6 6 6 6 5 5 5
10 10 9 9 10 10 9 9 8 7 7 7 6 6 6 5 5 5 4 4 4 4
9 9 9 9 9 8 8 7 7 6 6 6 5 5 5 4 4 4 3 3 3 2
9 9 9 9 8 7 7 7 5 5 5 5 5 5 3 3 3 1 2 2 2 1
8 8 8 8 7 7 6 6 5 5 4 4 4 3 2 2 1 1 1 2 2 1
8 8 8 7 7 6 5 5 4 4 3 2 3 2 1 -0 0 0 1 1 1 2
7 7 7 7 6 5 5 4 3 1 0 0 1 0 -0 -0 0 0 1 1 1 2
7 7 6 6 5 5 4 3 1 0 0 -0 0 0 -0 0 1 1 1 1 1 1
6 6 6 5 5 4 3 2 0 -0 -0 -0 -0 0 1 1 1 1 1 1 1 1
5 5 5 5 4 3 2 0 0 -0 -0 -1 -0 0 -0 0 1 1 1 1 1 1

GFSNIL_850_temp_084.txt.gz
Temp
15 15 15 15 14 14 14 14 14 14 14 13 12 11 11 11 11 10 10 10 9 9
14 15 14 14 14 13 13 13 13 13 13 12 12 11 10 10 10 10 9 9 8 8
13 13 13 14 14 13 13 13 12 11 11 11 11 10 9 9 9 8 8 8 7 7
12 11 12 12 13 12 12 11 11 11 10 10 10 9 8 8 8 7 7 7 6 6
11 11 11 11 11 11 10 11 10 10 10 9 8 8 8 7 7 6 6 6 5 6
10 10 10 10 10 9 9 9 9 9 9 8 7 7 6 6 6 6 5 5 4 4
9 9 9 9 9 9 9 8 8 8 8 7 7 6 5 5 5 4 4 4 4 3
8 8 9 9 8 8 8 8 8 7 7 6 6 5 4 4 3 3 3 2 2 2
8 8 8 8 8 7 7 7 7 6 5 5 4 4 3 2 1 0 1 0 1 1
8 8 8 7 7 7 6 6 5 5 5 4 2 1 1 -0 -0 0 0 -0 0 1
7 7 7 7 6 6 5 5 4 4 2 -0 -0 0 -0 -0 -1 -1 -0 0 1 1
7 7 6 6 5 5 4 4 3 2 0 -0 -0 -0 -1 -1 -1 -0 0 1 1 1
7 6 6 5 5 4 3 3 2 1 0 -0 -0 -1 -1 -0 0 0 1 1 1 1
6 6 5 4 4 3 3 2 2 0 -0 -0 -1 -1 -0 -0 -0 0 0 1 1 1

GFSNIL_850_temp_087.txt.gz
Temp
15 15 15 15 15 15 14 14 14 13 14 13 13 13 12 12 11 11 11 10 9 9
15 15 15 14 14 14 13 14 13 13 13 13 13 12 11 10 10 10 10 9 8 8
14 14 14 14 13 13 13 13 12 12 11 11 11 12 11 11 10 9 9 8 8 7
12 13 12 13 12 12 12 12 12 11 12 12 11 10 10 9 9 8 8 7 6 6
11 11 11 11 11 11 12 12 11 11 12 10 10 9 8 8 7 7 7 6 5 5
10 10 10 10 10 10 11 10 10 10 9 9 8 8 7 7 7 6 5 5 4 4
9 9 9 9 9 10 9 9 9 9 8 8 7 7 7 6 6 5 5 4 3 3
8 8 8 8 9 9 8 8 8 8 7 7 6 6 6 5 5 4 3 2 1 1
7 7 8 8 8 8 7 7 7 7 7 6 5 5 5 4 3 1 1 1 0 0
7 7 7 7 7 7 7 7 6 6 5 5 4 4 2 1 0 0 0 -0 -0 -0
7 7 7 7 7 6 6 6 6 5 5 4 3 0 -1 -1 -1 -1 -1 -1 -1 -0
7 7 7 7 6 6 6 5 5 5 4 3 1 0 -1 -1 -1 -1 -1 -1 -1 0
7 6 6 6 6 5 5 5 5 4 3 2 0 0 -0 -1 -1 -1 -1 0 0 0
6 6 5 5 5 5 5 4 4 3 3 1 0 -0 -0 -1 -1 -0 -0 -0 -0 -0

GFSNIL_850_temp_090.txt.gz
Temp
15 15 15 14 14 13 12 12 12 13 13 13 13 13 12 12 12 12 11 11 10 10
15 15 15 15 14 14 13 13 13 12 12 12 12 12 11 11 11 10 10 9 9 9
14 14 14 14 14 14 14 13 12 12 12 12 12 12 12 11 11 10 8 8 8 7
13 13 13 13 13 12 12 12 12 12 12 12 12 13 12 11 10 9 8 7 7 6
13 12 12 11 11 11 11 10 11 11 11 11 12 11 10 9 9 8 7 6 6 6
11 11 11 10 10 10 10 10 10 10 10 11 10 10 9 8 8 8 6 6 5 4
9 9 9 9 10 9 10 10 10 10 9 10 9 9 8 8 8 6 5 5 4 3
8 8 8 8 8 8 8 9 9 9 9 9 8 8 7 7 6 6 5 4 2 1
8 7 7 7 8 8 8 8 8 8 8 8 7 7 6 6 6 5 2 0 0 0
7 7 7 7 7 7 7 7 7 7 7 7 6 6 5 5 4 2 0 0 0 -0
7 7 7 7 7 7 7 7 7 6 6 6 5 5 4 2 -0 -0 -0 -0 -0 -0
7 7 7 7 6 6 6 6 6 6 5 5 4 3 2 0 -0 -0 -1 -1 -1 -1
7 6 6 6 6 5 5 5 5 5 4 4 3 3 1 1 -0 -1 -1 -1 -1 -1
6 6 6 5 5 4 4 4 4 4 4 3 3 2 1 1 0 -1 -1 -0 -0 -0

GFSNIL_850_temp_093.txt.gz
Temp
14 14 14 14 14 14 14 13 12 12 12 11 11 12 12 12 11 12 12 12 11 11
15 15 15 15 14 14 13 13 13 12 12 11 11 12 12 11 12 11 11 10 10 10
14 14 15 15 15 14 13 13 12 12 11 11 11 11 12 12 11 11 11 10 10 9
13 14 14 14 14 13 13 12 11 11 11 11 11 11 11 11 10 12 11 10 9 8
13 13 13 13 12 12 12 11 10 10 10 10 10 10 10 10 10 11 10 9 8 7
12 12 12 11 11 11 10 10 10 10 10 10 10 10 9 10 10 10 9 8 7 6
10 10 10 10 10 9 9 9 9 9 9 9 9 9 9 9 9 9 8 7 6 5
9 9 8 8 8 8 8 8 8 8 8 8 8 9 8 8 8 8 7 7 6 4
9 8 8 8 8 8 8 8 7 7 7 7 8 8 8 8 8 7 7 6 3 1
8 7 7 7 7 7 7 7 7 7 7 7 7 7 7 8 7 6 5 2 0 0
7 7 6 6 6 6 6 6 6 6 6 6 6 6 6 6 5 5 1 -0 -0 -0
7 7 6 6 6 6 6 6 6 6 6 6 5 5 5 4 3 1 -0 -0 -0 -1
7 6 6 6 5 5 5 5 5 5 5 5 5 4 4 4 3 1 -0 -0 -1 -1
7 6 6 5 5 5 4 4 4 4 4 4 4 4 4 4 2 1 -0 -1 -1 -1

GFSNIL_850_temp_096.txt.gz
Temp
14 14 13 13 13 13 13 13 12 11 11 12 11 12 11 11 11 12 12 12 11 11
14 14 14 14 14 14 14 13 12 11 11 11 11 11 11 11 12 11 11 11 11 10
14 14 14 14 14 14 14 13 12 11 11 11 11 11 11 11 11 11 11 10 10 10
13 13 13 13 14 14 13 13 12 11 11 11 11 11 11 11 11 11 11 10 9 9
13 13 13 13 13 13 13 12 11 11 10 10 10 10 10 10 10 10 9 9 9 9
11 12 12 12 12 12 12 11 10 10 9 9 9 9 10 9 10 9 8 9 9 8
10 10 10 10 11 11 11 10 10 9 9 9 9 9 9 10 9 9 8 8 8 7
9 9 9 9 9 9 9 9 8 8 8 8 9 9 9 9 8 8 8 8 7 6
9 8 8 8 8 8 8 8 8 8 8 8 8 8 8 8 7 7 7 7 7 5
8 8 8 7 7 7 7 7 7 7 7 7 7 7 7 7 7 7 7 7 6 4
8 7 7 6 6 6 6 6 6 6 6 6 6 6 6 6 6 6 5 4 3 1
8 7 6 6 6 6 5 5 5 5 5 5 5 5 5 5 5 4 4 4 2 0
7 7 7 6 6 6 5 5 4 4 4 4 4 4 4 5 4 4 4 3 1 0
7 7 6 6 6 5 5 5 5 5 5 4 4 4 5 5 4 3 3 2 -0 -1

GFSNIL_850_temp_099.txt.gz
Temp
13 13 12 11 12 12 13 13 12 12 12 11 11 10 11 10 10 11 11 11 12 12
14 14 13 13 13 13 13 13 13 13 11 11 10 10 10 10 10 11 11 12 12 12
14 14 14 14 14 14 14 14 14 13 11 10 11 10 11 10 10 11 11 11 11 11
12 13 13 13 14 14 14 14 14 13 12 11 11 11 10 11 10 11 11 11 11 10
12 12 12 12 13 13 13 13 13 12 11 11 11 10 10 10 10 11 11 10 10 10
11 11 11 11 11 12 12 12 11 10 10 11 10 10 10 10 10 10 10 10 10 9
11 11 10 10 10 10 10 10 10 9 10 9 9 9 9 9 9 9 9 9 8 8
10 10 10 9 9 9 9 9 9 8 9 8 8 8 8 8 9 8 8 8 7 7
9 9 9 9 8 8 8 8 8 8 7 7 8 8 8 8 8 7 7 7 7 6
9 9 8 8 8 8 8 7 7 7 7 7 7 7 7 7 7 7 7 7 6 6
8 8 8 7 7 7 7 7 7 6 6 6 6 6 6 6 6 6 6 6 6 5
8 7 7 6 7 6 6 6 6 6 6 6 6 6 6 6 6 6 5 5 5 4
6 7 7 6 5 5 5 5 5 5 5 6 5 6 6 5 5 5 5 4 4 3
5 5 6 5 5 4 4 4 5 4 5 5 5 5 5 5 5 4 4 4 4 3

GFSNIL_850_temp_102.txt.gz
Temp
12 11 12 12 12 12 12 11 11 12 11 11 11 11 11 15 10 10 10 11 11 11
12 12 12 13 13 11 12 12 12 12 12 12 12 11 11 12 11 10 10 10 10 11
12 12 12 12 13 13 13 13 13 13 13 13 11 11 11 11 10 10 10 10 11 11
12 12 12 12 13 13 13 13 13 13 13 13 11 11 11 11 10 10 10 10 10 11
12 12 12 12 12 13 13 13 13 13 13 12 10 11 11 10 10 10 10 10 10 10
11 11 12 12 12 12 12 12 12 13 12 11 10 10 10 10 10 9 9 10 10 10
10 10 10 10 10 10 10 11 11 11 10 9 10 10 9 9 9 8 9 9 9 9
9 9 9 9 9 10 9 9 10 10 9 8 9 9 9 8 8 8 9 9 9 9
9 9 9 9 9 8 8 8 8 8 8 7 8 9 8 7 7 8 8 8 8 8
8 8 8 8 8 8 7 6 6 7 7 7 7 7 7 7 7 7 7 8 8 8
7 7 7 7 7 7 7 6 6 6 6 6 6 6 6 6 6 6 6 7 7 7
6 6 6 6 6 6 5 5 5 5 5 5 6 6 6 6 6 6 6 6 6 6
5 5 5 5 5 4 5 4 4 4 4 4 4 5 5 5 5 5 5 5 5 5
4 3 4 4 4 4 3 3 3 3 3 3 3 3 4 4 4 4 4 4 5 4

GFSNIL_850_temp_105.txt.gz
Temp
11 11 12 13 12 12 12 13 12 12 11 12 12 12 11 11 11 11 11 13 11 10
11 11 12 12 12 12 12 12 12 11 11 11 12 11 11 11 10 11 11 12 12 11
11 11 11 11 12 12 12 12 12 12 11 12 12 11 10 10 10 10 11 11 11 11
10 10 10 11 11 12 13 13 13 12 12 12 12 11 11 10 10 10 10 10 10 10
10 11 11 11 11 11 11 12 12 12 12 11 10 10 10 10 10 10 10 10 10 10
11 11 11 11 10 10 11 11 11 11 11 11 10 10 10 10 10 10 10 10 10 9
10 10 10 10 10 10 10 10 10 10 10 11 10 9 9 9 9 10 9 9 9 8
9 9 9 9 9 9 9 9 9 9 9 9 9 8 8 9 9 9 9 8 7 7
8 8 9 9 9 9 8 8 8 8 8 8 8 7 7 8 8 8 7 7 7 7
7 8 8 7 8 8 8 8 7 7 7 7 7 7 7 7 6 6 6 6 6 6
6 6 6 6 6 6 7 7 7 6 6 5 6 5 6 6 6 6 6 6 6 6
5 4 4 4 4 4 5 5 6 6 5 5 5 5 5 4 5 5 5 6 6 6
3 2 2 2 2 2 3 3 2 3 3 3 3 3 3 4 4 4 5 5 5 5
4 3 2 2 1 0 1 0 1 2 1 2 2 3 3 3 2 3 3 3 3 4

GFSNIL_850_temp_108.txt.gz
Temp
10 10 10 10 10 11 11 11 11 11 12 11 11 12 12 12 12 12 12 12 12 11
11 10 10 11 12 12 11 10 10 11 12 12 10 11 11 12 11 11 11 12 11 11
11 11 11 11 11 11 11 11 11 11 10 11 10 10 11 12 11 10 11 11 11 10
11 10 10 10 10 10 10 10 11 10 11 11 12 11 10 11 11 11 10 10 10 10
10 10 10 10 11 11 11 11 11 12 12 11 11 10 10 10 10 10 10 10 10 10
10 10 10 9 10 10 10 10 10 10 10 11 11 11 10 9 10 9 10 10 10 10
9 9 10 10 10 10 10 10 10 10 10 10 10 10 9 8 8 8 9 9 9 9
9 9 9 9 9 9 9 9 9 9 8 8 8 8 8 7 7 8 8 8 9 9
8 8 8 9 9 9 8 8 8 8 8 8 7 7 7 7 7 7 8 8 8 8
7 8 8 8 8 7 7 7 7 7 7 7 7 6 6 6 6 5 6 6 6 6
5 5 5 5 5 6 6 6 6 6 6 6 6 5 4 4 4 4 5 4 4 5
4 4 4 3 3 4 4 4 5 5 5 5 5 5 4 3 3 3 3 4 4 4
2 3 3 2 1 0 0 1 1 1 1 1 1 1 1 1 2 3 3 3 3 3
3 3 2 1 -0 0 -0 -1 -1 -1 -1 -1 0 1 1 1 2 2 2 2 3 2

GFSNIL_850_temp_111.txt.gz
Temp
10 10 10 10 10 10 10 11 11 11 10 11 10 11 11 11 12 13 12 13 12 13
10 10 10 10 10 11 11 11 11 11 11 11 11 11 11 11 11 11 11 12 11 11
9 10 10 10 10 9 10 10 10 10 10 10 11 10 10 10 10 10 10 10 10 10
10 10 10 10 10 10 10 10 10 10 10 10 11 11 10 10 10 10 11 10 10 10
10 10 10 10 10 9 9 10 10 10 10 10 10 10 10 10 10 10 10 10 10 10
10 10 10 10 10 10 10 10 9 10 10 10 10 10 10 9 9 9 8 9 8 9
9 9 9 9 10 10 10 9 9 9 9 9 9 9 9 9 8 7 8 8 9 9
8 8 8 8 8 8 8 8 8 9 9 8 8 8 8 7 7 7 7 7 7 8
7 7 7 7 8 8 8 8 8 8 8 8 8 8 8 7 7 7 6 6 6 7
7 6 6 6 6 6 7 6 6 6 6 7 7 6 6 6 5 5 5 5 5 6
6 6 6 6 7 7 7 7 7 7 6 6 5 5 4 4 4 4 4 4 4 4
4 3 3 3 3 3 4 4 4 4 4 4 4 4 2 1 1 1 1 2 3 3
3 3 4 4 4 3 3 3 3 2 1 0 1 1 1 -0 0 0 1 1 3 3
3 2 2 2 2 2 2 2 2 1 2 1 0 -1 -1 -2 -2 -1 -1 -0 1 2

GFSNIL_850_temp_117.txt.gz
Temp
12 11 10 10 10 10 10 11 10 10 11 11 10 10 10 10 10 10 10 10 11 12
11 10 10 10 10 10 10 10 10 10 10 10 10 10 10 10 10 10 10 11 11 12
10 10 10 10 10 10 9 10 9 10 10 10 10 10 10 10 10 10 10 10 10 10
10 9 9 9 9 9 9 10 10 10 10 9 9 9 9 10 10 10 10 10 10 10
8 9 9 9 9 9 9 9 9 9 9 9 9 9 9 9 9 10 9 9 9 9
7 8 8 8 8 8 8 8 9 9 9 9 9 9 9 9 9 9 9 9 8 8
8 8 8 8 8 9 9 9 9 9 9 9 9 9 9 8 8 8 8 8 7 7
7 7 8 8 8 7 8 8 8 8 7 7 7 8 8 7 7 7 7 7 6 6
7 7 7 7 7 7 7 7 7 7 7 7 7 7 6 6 6 6 6 5 5 5
6 6 6 7 6 6 6 6 6 6 6 6 5 5 5 5 5 4 4 4 4 4
6 6 6 6 6 6 6 6 6 6 5 4 4 4 4 4 3 3 3 2 2 2
5 5 5 5 5 5 4 4 4 4 4 3 3 2 2 2 2 1 1 1 1 -1
4 4 5 4 4 4 4 3 3 1 2 2 2 1 1 1 0 0 1 0 -0 0
3 3 3 3 3 2 3 2 2 2 2 1 1 1 1 1 -0 -2 -3 -2 -1 -0

GFSNIL_850_temp_120.txt.gz
Temp
11 11 11 12 12 12 11 11 11 11 11 12 11 10 11 10 10 10 9 10 10 10
10 10 11 11 11 11 11 11 10 11 11 11 11 11 10 10 10 9 9 9 10 10
10 11 11 10 9 10 10 10 10 10 10 10 10 10 10 10 10 9 9 10 9 10
10 9 9 9 9 10 9 9 9 9 9 9 9 9 9 9 9 9 9 9 9 9
9 9 9 9 9 9 9 9 9 9 9 9 9 9 9 9 9 9 9 9 9 9
6 7 7 8 8 8 8 7 8 8 8 9 9 9 9 8 8 8 8 8 8 8
6 7 8 7 8 8 8 8 8 8 8 8 8 8 8 8 8 8 8 8 8 7
6 7 7 7 7 7 7 7 7 7 7 7 7 7 7 7 7 7 7 6 6 6
5 5 6 6 6 6 6 6 6 6 6 6 7 6 6 6 6 6 6 6 6 6
5 5 6 6 6 6 6 6 6 5 5 5 5 6 6 5 5 5 5 4 4 4
5 5 5 5 5 5 5 5 5 5 5 4 4 3 3 3 3 3 2 2 2 2
5 5 5 4 5 5 5 5 4 4 4 3 3 2 2 2 1 1 1 0 -0 -0
5 4 4 5 5 5 4 4 3 3 2 2 1 1 1 1 -0 -1 -0 -0 -0 0
4 4 4 4 3 3 3 2 2 2 1 1 1 0 -0 -0 -1 0 0 0 1 0

GFSNIL_850_temp_123.txt.gz
Temp
9 9 9 11 10 11 12 13 13 12 12 12 12 11 11 11 11 11 11 10 10 10
8 9 9 11 11 11 10 11 12 11 11 11 11 11 11 10 10 10 10 10 10 9
8 9 9 9 9 9 11 10 10 10 11 11 11 10 10 10 10 10 10 9 9 9
8 9 10 9 9 10 9 9 10 9 10 10 10 10 10 10 9 10 10 9 9 9
8 8 8 8 9 9 9 9 9 9 9 9 9 9 9 9 10 10 9 9 9 9
8 7 5 5 7 8 9 7 8 7 8 8 8 8 9 9 9 9 8 8 8 8
4 4 4 4 5 5 5 6 6 8 8 7 8 8 8 8 8 8 8 7 7 7
4 5 4 5 5 5 6 7 7 7 7 7 7 8 7 7 7 7 7 7 7 6
5 5 5 5 6 6 6 6 6 6 6 7 7 7 7 6 6 6 6 5 5 5
5 5 6 6 6 6 6 6 6 5 5 6 6 6 5 6 5 5 4 4 4 4
5 5 5 5 5 5 5 5 5 4 4 4 4 4 4 4 4 4 4 3 3 3
5 5 4 5 5 4 4 4 4 3 3 4 4 3 2 2 2 2 2 1 1 1
4 4 4 4 4 3 3 3 3 3 3 2 2 2 2 2 0 0 1 0 -1 -3
4 4 4 4 3 3 3 3 3 2 1 1 0 0 0 0 -1 -0 -0 -0 -0 -0

GFSNIL_850_temp_126.txt.gz
Temp
8 9 9 9 10 10 10 11 11 12 13 12 12 12 12 11 11 10 10 11 10 11
8 8 8 8 9 9 10 9 10 10 11 12 12 12 12 11 11 10 10 11 11 11
8 8 8 8 8 9 9 9 9 10 11 11 10 11 11 10 10 10 10 10 10 9
7 7 8 7 8 8 9 8 9 9 9 10 11 11 10 10 10 10 10 10 9 9
6 6 7 7 7 7 8 8 8 8 8 8 9 9 9 9 9 9 10 10 9 9
5 4 5 5 6 6 8 8 8 8 8 7 8 9 8 9 9 8 8 9 8 8
3 4 5 5 4 4 5 6 8 7 6 6 6 5 7 7 7 8 8 8 8 7
4 4 4 4 5 4 5 7 7 6 7 7 5 6 7 8 8 7 8 7 7 7
4 4 4 5 5 5 6 6 6 6 6 6 7 7 7 7 7 7 6 6 5 5
4 4 4 4 4 5 5 4 4 5 6 6 5 5 5 6 5 5 5 4 4 4
4 4 4 4 4 4 4 5 5 5 5 4 4 4 4 4 4 4 4 3 3 3
4 4 4 4 4 4 4 4 4 4 4 4 4 3 3 3 3 2 3 3 2 2
4 4 4 4 4 4 4 3 3 3 3 3 3 2 2 3 3 3 2 1 0 -0
4 4 4 4 3 3 3 3 3 3 2 2 2 2 2 1 1 1 0 0 -1 -2